Flag for U.S.A. Weather past 2 weeks in San Francisco, California, U.S.A.

Now
52 °F

Passing clouds.


Feels Like: 45 °F
Forecast: 50 / 63 °F
Wind: 26 mph from West

Location: San Francisco International Airport

Current Time: Apr 26, 2015 at 1:46:57 AM

Latest Report: Apr 26, 2015 at 12:56 AM


Visibility: 10 mi

Pressure: 30.08 "Hg

Humidity: 80%

Dew point: 46 °F

Location of San FranciscoLocation

Historic Weather in San Francisco — Graph

°F

San Francisco temperature yesterday

Maximum temperature yesterday: 60 °F (at 2:56 PM)
Minimum temperature yesterday: 52 °F (at 8:56 AM)
Average temperature yesterday: 56 °F

Past Weeks' High & Low Weather Summary

 TemperatureHumidityPressure
High78 °F (Apr 16, 2:56 PM)100% (Apr 12, 2:56 AM)30.35 "Hg (Apr 12, 2:56 AM)
Low49 °F (Apr 18, 6:56 AM)20% (Apr 16, 2:56 PM)29.84 "Hg (Apr 20, 5:56 PM)
Average57 °F74%30.00 "Hg
* Reported Apr 10 11:56 PM — Apr 25 11:56 PM, San Francisco, Weather by CustomWeather, © 2015

Note: Actual official high and low records may vary slightly from our data, if they occured in-between our weather recording intervals... More about our weather records

Advertising

San Francisco weather history for previous 24 hours

 ConditionsComfort  
Time TempWeatherWind HumidityBarometerVisibility
11:56 PM
Sat, Apr 25
52 °FPassing clouds.16 mph80%30.08 "Hg10 mi
10:56 PM53 °FPassing clouds.24 mph74%30.07 "Hg10 mi
9:56 PM53 °FPassing clouds.18 mph69%30.07 "Hg10 mi
8:56 PM54 °FPassing clouds.29 mph69%30.04 "Hg10 mi
7:56 PM55 °FScattered clouds.30 mph67%30.02 "Hg10 mi
6:56 PM55 °FScattered clouds.31 mph69%30.01 "Hg10 mi
5:56 PM57 °FScattered clouds.37 mph64%30.00 "Hg10 mi
4:56 PM58 °FScattered clouds.28 mph65%30.00 "Hg10 mi
3:56 PM59 °FScattered clouds.24 mph62%29.99 "Hg10 mi
2:56 PM60 °FPartly sunny.23 mph60%30.00 "Hg10 mi
1:56 PM59 °FPartly sunny.23 mph64%30.00 "Hg10 mi
12:56 PM58 °FBroken clouds.22 mph67%29.99 "Hg10 mi
11:56 AM57 °FBroken clouds.23 mph69%29.99 "Hg10 mi
10:56 AM56 °FBroken clouds.28 mph72%29.98 "Hg10 mi
9:56 AM54 °FPartly sunny.25 mph80%29.97 "Hg10 mi
8:56 AM52 °FCloudy.23 mph89%29.96 "Hg9 mi
7:56 AM56 °FMore clouds than sun.18 mph84%29.94 "Hg7 mi
6:56 AM54 °FMostly cloudy.12 mph90%29.93 "Hg7 mi
5:56 AM56 °FOvercast.17 mph87%29.92 "Hg10 mi
4:56 AM55 °FLow clouds.15 mph93%29.91 "Hg10 mi
3:56 AM57 °FLight rain. Mostly cloudy.22 mph90%29.90 "Hg8 mi
2:56 AM58 °FLight rain. Fog.22 mph87%29.90 "Hg6 mi
1:56 AM59 °FLight rain. Overcast.21 mph84%29.91 "Hg8 mi
Weather by CustomWeather, © 2015

See weather overviewHow to use our weather pages